Location: Neuvy Saint Sepulchre
(46.5953°N, 1.8122°E)
Time: 20:09:05
(UTC+01:00)

ISS - Pass Details

Date: 25 November 2019
Orbit: 411 x 421 km, 51.6° (Epoch: 16 December)

Event Time Altitude Azimuth Distance (km) Brightness Sun altitude
Rises 17:33:54 0° 205° (SSW) 2,340 0.9 -4.3°
Reaches altitude 10° 17:36:18 10° 188° (S) 1,484 -0.5 -4.7°
Maximum altitude 17:38:52 21° 138° (SE) 1,001 -2.0 -5.1°
Drops below altitude 10° 17:41:28 10° 87° (E) 1,498 -1.5 -5.5°
Enters shadow 17:42:16 - 80° (E) 1,767 -1.2 -5.6°
